FW6030 Weather Reports


time (UTC)temp
C
wind
direction
speed
KPH
gust
KPH
rain 1hr
cm
rain 24hr
cm
rain mn
cm
humidity
%
barometer
mb
20260506081148 23 360 9.7 25.7 0.00 0.00 0.00 87 1008.8
20260506081048 23 360 9.7 30.6 0.00 0.00 0.00 87 1008.9
20260506080928 23 360 9.7 30.6 0.00 0.00 0.00 87 1008.8
20260506080828 23 360 9.7 30.6 0.00 0.00 0.00 87 1008.8
20260506080728 23 360 9.7 30.6 0.00 0.00 0.00 87 1008.8
20260506080633 23 360 9.7 30.6 0.00 0.00 0.00 87 1008.9
20260506080550 23 360 9.7 30.6 0.00 0.00 0.00 87 1008.9
20260506080430 23 360 11.3 30.6 0.00 0.00 0.00 87 1008.9
20260506080332 23 360 11.3 30.6 0.00 0.00 0.00 87 1008.9
20260506080233 23 360 12.9 30.6 0.00 0.00 0.00 87 1008.8
20260506080133 23 360 14.5 30.6 0.00 0.00 0.00 87 1008.9
20260506073448 23 360 12.9 27.4 0.00 0.00 0.00 87 1009.1
20260506073329 23 360 11.3 25.7 0.00 0.00 0.00 87 1009.1
20260506073230 23 360 12.9 25.7 0.00 0.00 0.00 87 1009.1
20260506073130 23 360 12.9 25.7 0.00 0.00 0.00 87 1009.1
20260506073030 23 360 14.5 27.4 0.00 0.00 0.00 87 1009.1
20260506072930 23 360 16.1 27.4 0.00 0.00 0.00 87 1009.1
20260506072831 23 360 16.1 27.4 0.00 0.00 0.00 87 1009.2
20260506072736 23 360 16.1 27.4 0.00 0.00 0.00 87 1009.2
20260506072617 23 360 16.1 32.2 0.00 0.00 0.00 87 1009.1
20260506072517 23 360 14.5 32.2 0.00 0.00 0.00 87 1009.1
20260506072417 23 360 14.5 32.2 0.00 0.00 0.00 87 1009.1
20260506072318 23 360 14.5 32.2 0.00 0.00 0.00 87 1009.2
20260506072218 23 360 14.5 32.2 0.00 0.00 0.00 87 1009.2
20260506072119 23 360 12.9 32.2 0.00 0.00 0.00 87 1009.2
20260506072024 23 360 14.5 32.2 0.00 0.00 0.00 87 1009.2
20260506071924 23 360 14.5 32.2 0.00 0.00 0.00 87 1009.4
20260506071825 23 360 14.5 32.2 0.00 0.00 0.00 87 1009.4
20260506071726 23 360 14.5 32.2 0.00 0.00 0.00 87 1009.3
20260506071646 23 360 12.9 32.2 0.00 0.00 0.00 87 1009.4
20260506071526 23 360 12.9 32.2 0.00 0.00 0.00 87 1009.4
20260506071446 23 360 11.3 32.2 0.00 0.00 0.00 87 1009.3
20260506071330 23 360 11.3 32.2 0.00 0.00 0.00 87 1009.4
20260506071232 23 360 11.3 32.2 0.00 0.00 0.00 87 1009.2
20260506071131 23 360 12.9 32.2 0.00 0.00 0.00 87 1009.3
20260506071034 23 360 12.9 32.2 0.00 0.00 0.00 87 1009.2
20260506070935 23 360 14.5 32.2 0.00 0.00 0.00 87 1009.2
20260506070816 23 360 14.5 33.8 0.00 0.00 0.00 87 1009.3
20260506070722 23 360 14.5 33.8 0.00 0.00 0.00 87 1009.2
20260506070620 23 360 14.5 33.8 0.00 0.00 0.00 87 1009.3
20260506070521 23 360 16.1 33.8 0.00 0.00 0.00 87 1009.4
20260506070422 23 360 14.5 33.8 0.00 0.00 0.00 87 1009.3
20260506070323 23 360 14.5 33.8 0.00 0.00 0.00 87 1009.4
20260506070224 23 360 16.1 33.8 0.00 0.00 0.00 87 1009.4
20260506070123 23 360 16.1 33.8 0.00 0.00 0.00 87 1009.4
20260506062436 23 360 9.7 29.0 0.00 0.00 0.00 86 1009.3
20260506062356 23 360 8.0 29.0 0.00 0.00 0.00 86 1009.4
20260506062236 23 360 8.0 29.0 0.00 0.00 0.00 86 1009.4
20260506062120 23 360 11.3 29.0 0.00 0.00 0.00 86 1009.4
20260506062021 23 360 12.9 29.0 0.00 0.00 0.00 87 1009.5
20260506061922 23 360 12.9 27.4 0.00 0.00 0.00 86 1009.5
20260506061843 23 360 14.5 27.4 0.00 0.00 0.00 87 1009.5
20260506061723 24 360 14.5 27.4 0.00 0.00 0.00 87 1009.5
20260506061643 24 360 14.5 27.4 0.00 0.00 0.00 87 1009.5
20260506061522 23 360 14.5 27.4 0.00 0.00 0.00 87 1009.5
20260506061427 24 360 14.5 25.7 0.00 0.00 0.00 87 1009.5
20260506061327 23 360 12.9 38.6 0.00 0.00 0.00 86 1009.5
20260506061228 23 360 11.3 38.6 0.00 0.00 0.00 86 1009.5
20260506061127 23 360 9.7 38.6 0.00 0.00 0.00 87 1009.5
20260506061029 24 360 11.3 38.6 0.00 0.00 0.00 87 1009.4
20260506060950 23 360 14.5 38.6 0.00 0.00 0.00 87 1009.4
20260506060828 23 360 16.1 38.6 0.00 0.00 0.00 86 1009.4
20260506060729 24 360 16.1 38.6 0.00 0.00 0.00 86 1009.4
20260506060633 24 360 17.7 38.6 0.00 0.00 0.00 86 1009.3
20260506060533 23 360 17.7 38.6 0.00 0.00 0.00 87 1009.3
20260506060434 23 360 19.3 38.6 0.00 0.00 0.00 87 1009.3
20260506060334 23 360 17.7 38.6 0.00 0.00 0.00 87 1009.3
20260506060235 23 360 16.1 38.6 0.00 0.00 0.00 87 1009.3
20260506060135 23 360 16.1 30.6 0.00 0.00 0.00 87 1009.4
20260506051315 -17 0.0 0.0 0.00 0.00 0.00 1009.5
20260506051223 -17 0.0 0.0 0.00 0.00 0.00 1009.5
20260506051127 -17 0.0 0.0 0.00 0.00 0.00 1009.5
20260506051051 -17 0.0 0.0 0.00 0.00 0.00 1009.5
20260506050914 -17 0.0 0.0 0.00 0.00 0.00 1009.6
20260506050818 -17 0.0 0.0 0.00 0.00 0.00 1009.5
20260506050722 -17 0.0 0.0 0.00 0.00 0.00 1009.4
20260506050625 -17 0.0 0.0 0.00 0.00 0.00 1009.4
20260506050553 -17 0.0 0.0 0.00 0.00 0.00 1009.6
20260506050319 -17 0.0 0.0 0.00 0.00 0.00 1009.6
20260506050223 -17 0.0 0.0 0.00 0.00 0.00 1009.5
20260506050127 -17 0.0 0.0 0.00 0.00 0.00 1009.5
20260506045116 -17 0.0 0.0 0.00 0.00 0.00 1009.6
20260506045023 -17 0.0 0.0 0.00 0.00 0.00 1009.6
20260506044927 -17 0.0 0.0 0.00 0.00 0.00 1009.5
20260506044831 -17 0.0 0.0 0.00 0.00 0.00 1009.5
20260506044754 -17 0.0 0.0 0.00 0.00 0.00 1009.5
20260506044719 -17 0.0 0.0 0.00 0.00 0.00 1009.5
20260506044514 -17 0.0 0.0 0.00 0.00 0.00 1009.5
20260506044438 -17 0.0 0.0 0.00 0.00 0.00 1009.5
20260506044325 -17 0.0 0.0 0.00 0.00 0.00 1009.5
20260506044228 -17 0.0 0.0 0.00 0.00 0.00 1009.5
20260506044132 -17 0.0 0.0 0.00 0.00 0.00 1009.5
20260506044035 -17 0.0 0.0 0.00 0.00 0.00 1009.4
20260506043938 -17 0.0 0.0 0.00 0.00 0.00 1009.4
20260506043814 -17 0.0 0.0 0.00 0.00 0.00 1009.4
20260506043717 -17 0.0 0.0 0.00 0.00 0.00 1009.5
20260506043626 -17 0.0 0.0 0.00 0.00 0.00 1009.5
20260506043530 -17 0.0 0.0 0.00 0.00 0.00 1009.3
20260506043414 -17 0.0 0.0 0.00 0.00 0.00 1009.5
20260506043318 -17 0.0 0.0 0.00 0.00 0.00 1009.4
20260506043221 -17 0.0 0.0 0.00 0.00 0.00 1009.4
20260506043125 -17 0.0 0.0 0.00 0.00 0.00 1009.4
20260506043031 -17 0.0 0.0 0.00 0.00 0.00 1009.4
20260506042915 -17 0.0 0.0 0.00 0.00 0.00 1009.3
20260506042820 -17 0.0 0.0 0.00 0.00 0.00 1009.4
20260506042723 -17 0.0 0.0 0.00 0.00 0.00 1009.4
20260506042646 -17 0.0 0.0 0.00 0.00 0.00 1009.4
20260506042528 -17 0.0 0.0 0.00 0.00 0.00 1009.4
20260506042436 -17 0.0 0.0 0.00 0.00 0.00 1009.4
20260506042338 -17 0.0 0.0 0.00 0.00 0.00 1009.4
20260506042214 -17 0.0 0.0 0.00 0.00 0.00 1009.3
20260506042118 -17 0.0 0.0 0.00 0.00 0.00 1009.4
20260506042021 -17 0.0 0.0 0.00 0.00 0.00 1009.4
20260506041925 -17 0.0 0.0 0.00 0.00 0.00 1009.4
20260506041828 -17 0.0 0.0 0.00 0.00 0.00 1009.3
20260506041715 -17 0.0 0.0 0.00 0.00 0.00 1009.4
20260506041618 -17 0.0 0.0 0.00 0.00 0.00 1009.4
20260506041522 -17 0.0 0.0 0.00 0.00 0.00 1009.3
20260506041446 -17 0.0 0.0 0.00 0.00 0.00 1009.2
20260506041315 -17 0.0 0.0 0.00 0.00 0.00 1009.3
20260506041239 -17 0.0 0.0 0.00 0.00 0.00 1009.3
20260506041123 -17 0.0 0.0 0.00 0.00 0.00 1009.3
20260506041030 -17 0.0 0.0 0.00 0.00 0.00 1009.3
20260506040913 -17 0.0 0.0 0.00 0.00 0.00 1009.2
20260506040838 -17 0.0 0.0 0.00 0.00 0.00 1009.3
20260506040719 -17 0.0 0.0 0.00 0.00 0.00 1009.2
20260506040623 -17 0.0 0.0 0.00 0.00 0.00 1009.2
20260506040526 -17 0.0 0.0 0.00 0.00 0.00 1009.3
20260506040415 -17 0.0 0.0 0.00 0.00 0.00 1009.4
20260506040339 -17 0.0 0.0 0.00 0.00 0.00 1009.4
20260506040214 -17 0.0 0.0 0.00 0.00 0.00 1009.2
20260506040139 -17 0.0 0.0 0.00 0.00 0.00 1009.2
20260506040014 -17 0.0 0.0 0.00 0.00 0.00 1009.1
20260506035918 -17 0.0 0.0 0.00 0.00 0.00 1009.1
20260506035842 -17 0.0 0.0 0.00 0.00 0.00 1009.1
20260506035750 -17 0.0 0.0 0.00 0.00 0.00 1009.1
20260506035713 -17 0.0 0.0 0.00 0.00 0.00 1009.1
20260506035532 -17 0.0 0.0 0.00 0.00 0.00 1009.1
20260506035416 -17 0.0 0.0 0.00 0.00 0.00 1009.1
20260506035321 -17 0.0 0.0 0.00 0.00 0.00 1009.0
20260506035225 -17 0.0 0.0 0.00 0.00 0.00 1009.0
20260506035128 -17 0.0 0.0 0.00 0.00 0.00 1009.1
20260506035015 -17 0.0 0.0 0.00 0.00 0.00 1009.1
20260506034919 -17 0.0 0.0 0.00 0.00 0.00 1009.0
20260506034823 -17 0.0 0.0 0.00 0.00 0.00 1009.1
20260506034747 -17 0.0 0.0 0.00 0.00 0.00 1009.1
20260506034628 -17 0.0 0.0 0.00 0.00 0.00 1009.0
20260506034513 -17 0.0 0.0 0.00 0.00 0.00 1009.1
20260506034421 -17 0.0 0.0 0.00 0.00 0.00 1009.0
20260506034346 -17 0.0 0.0 0.00 0.00 0.00 1009.0
20260506034229 -17 0.0 0.0 0.00 0.00 0.00 1009.1
20260506034152 -17 0.0 0.0 0.00 0.00 0.00 1009.0
20260506034034 -17 0.0 0.0 0.00 0.00 0.00 1009.0
20260506033958 -17 0.0 0.0 0.00 0.00 0.00 1009.0
20260506033751 -17 0.0 0.0 0.00 0.00 0.00 1009.1
20260506033619 -17 0.0 0.0 0.00 0.00 0.00 1008.9
20260506033522 -17 0.0 0.0 0.00 0.00 0.00 1008.9
20260506033426 -17 0.0 0.0 0.00 0.00 0.00 1008.9
20260506033328 -17 0.0 0.0 0.00 0.00 0.00 1008.9
20260506033232 -17 0.0 0.0 0.00 0.00 0.00 1008.9
20260506033115 -17 0.0 0.0 0.00 0.00 0.00 1008.8
20260506033023 -17 0.0 0.0 0.00 0.00 0.00 1008.7
20260506032926 -17 0.0 0.0 0.00 0.00 0.00 1008.7
20260506032830 -17 0.0 0.0 0.00 0.00 0.00 1008.8
20260506032713 -17 0.0 0.0 0.00 0.00 0.00 1008.7
20260506032617 -17 0.0 0.0 0.00 0.00 0.00 1008.7
20260506032521 -17 0.0 0.0 0.00 0.00 0.00 1008.7
20260506032428 -17 0.0 0.0 0.00 0.00 0.00 1008.7
20260506032331 -17 0.0 0.0 0.00 0.00 0.00 1008.7
20260506032255 -17 0.0 0.0 0.00 0.00 0.00 1008.7
20260506032030 -17 0.0 0.0 0.00 0.00 0.00 1008.7
20260506031914 -17 0.0 0.0 0.00 0.00 0.00 1008.6
20260506031818 -17 0.0 0.0 0.00 0.00 0.00 1008.6
20260506031726 -17 0.0 0.0 0.00 0.00 0.00 1008.6
20260506031628 -17 0.0 0.0 0.00 0.00 0.00 1008.5
20260506031531 -17 0.0 0.0 0.00 0.00 0.00 1008.5
20260506031413 -17 0.0 0.0 0.00 0.00 0.00 1008.6
20260506031337 -17 0.0 0.0 0.00 0.00 0.00 1008.5
20260506031220 -17 0.0 0.0 0.00 0.00 0.00 1008.5
20260506031124 -17 0.0 0.0 0.00 0.00 0.00 1008.5
20260506031031 -17 0.0 0.0 0.00 0.00 0.00 1008.5
20260506030914 -17 0.0 0.0 0.00 0.00 0.00 1008.6
20260506030819 -17 0.0 0.0 0.00 0.00 0.00 1008.5
20260506030721 -17 0.0 0.0 0.00 0.00 0.00 1008.5
20260506030625 -17 0.0 0.0 0.00 0.00 0.00 1008.5
20260506030530 -17 0.0 0.0 0.00 0.00 0.00 1008.5
20260506030417 -17 0.0 0.0 0.00 0.00 0.00 1008.4
20260506030341 -17 0.0 0.0 0.00 0.00 0.00 1008.3
20260506030223 -17 0.0 0.0 0.00 0.00 0.00 1008.3
20260506030127 -17 0.0 0.0 0.00 0.00 0.00 1008.4
20260506030030 -17 0.0 0.0 0.00 0.00 0.00 1008.3
20260506025913 -17 0.0 0.0 0.00 0.00 0.00 1008.3
20260506025817 -17 0.0 0.0 0.00 0.00 0.00 1008.3
20260506025726 -17 0.0 0.0 0.00 0.00 0.00 1008.3
20260506025627 -17 0.0 0.0 0.00 0.00 0.00 1008.4
20260506025531 -17 0.0 0.0 0.00 0.00 0.00 1008.4
20260506025415 -17 0.0 0.0 0.00 0.00 0.00 1008.4
20260506025319 -17 0.0 0.0 0.00 0.00 0.00 1008.4
20260506025223 -17 0.0 0.0 0.00 0.00 0.00 1008.4
20260506025129 -17 0.0 0.0 0.00 0.00 0.00 1008.4
20260506025032 -17 0.0 0.0 0.00 0.00 0.00 1008.3
20260506024933 -17 0.0 0.0 0.00 0.00 0.00 1008.1
20260506024813 -17 0.0 0.0 0.00 0.00 0.00 1008.2
20260506024736 -17 0.0 0.0 0.00 0.00 0.00 1008.2
20260506024619 -17 0.0 0.0 0.00 0.00 0.00 1008.1
20260506024523 -17 0.0 0.0 0.00 0.00 0.00 1008.1
20260506024447 -17 0.0 0.0 0.00 0.00 0.00 1008.0
20260506024332 -17 0.0 0.0 0.00 0.00 0.00 1008.1
20260506024236 -17 0.0 0.0 0.00 0.00 0.00 1008.0
20260506024138 -17 0.0 0.0 0.00 0.00 0.00 1008.0
20260506024014 -17 0.0 0.0 0.00 0.00 0.00 1007.9
20260506023938 -17 0.0 0.0 0.00 0.00 0.00 1007.9
20260506023820 -17 0.0 0.0 0.00 0.00 0.00 1007.9
20260506023724 -17 0.0 0.0 0.00 0.00 0.00 1007.9
20260506023626 -17 0.0 0.0 0.00 0.00 0.00 1007.9
20260506023514 -17 0.0 0.0 0.00 0.00 0.00 1007.8
20260506023416 -17 0.0 0.0 0.00 0.00 0.00 1007.8
20260506023320 -17 0.0 0.0 0.00 0.00 0.00 1007.8
20260506023243 -17 0.0 0.0 0.00 0.00 0.00 1007.8
20260506023126 -17 0.0 0.0 0.00 0.00 0.00 1007.8
20260506023029 -17 0.0 0.0 0.00 0.00 0.00 1007.9
20260506022916 -17 0.0 0.0 0.00 0.00 0.00 1007.8
20260506022821 -17 0.0 0.0 0.00 0.00 0.00 1007.7
20260506022744 -17 0.0 0.0 0.00 0.00 0.00 1007.8
20260506022626 -17 0.0 0.0 0.00 0.00 0.00 1007.8
20260506022529 -17 0.0 0.0 0.00 0.00 0.00 1007.7
20260506022413 -17 0.0 0.0 0.00 0.00 0.00 1007.7
20260506022319 -17 0.0 0.0 0.00 0.00 0.00 1007.7
20260506022223 -17 0.0 0.0 0.00 0.00 0.00 1007.6
20260506022126 -17 0.0 0.0 0.00 0.00 0.00 1007.6
20260506022029 -17 0.0 0.0 0.00 0.00 0.00 1007.7
20260506021953 -17 0.0 0.0 0.00 0.00 0.00 1007.6
20260506021816 -17 0.0 0.0 0.00 0.00 0.00 1007.5
20260506021719 -17 0.0 0.0 0.00 0.00 0.00 1007.5
20260506021626 -17 0.0 0.0 0.00 0.00 0.00 1007.5
20260506021530 -17 0.0 0.0 0.00 0.00 0.00 1007.5
20260506021433 -17 0.0 0.0 0.00 0.00 0.00 1007.5
20260506021342 -17 0.0 0.0 0.00 0.00 0.00 1007.4
20260506021225 -17 0.0 0.0 0.00 0.00 0.00 1007.4
20260506021128 -17 0.0 0.0 0.00 0.00 0.00 1007.3
20260506021052 -17 0.0 0.0 0.00 0.00 0.00 1007.3
20260506020918 -17 0.0 0.0 0.00 0.00 0.00 1007.3
20260506020842 -17 0.0 0.0 0.00 0.00 0.00 1007.4
20260506020745 -17 0.0 0.0 0.00 0.00 0.00 1007.4
20260506020646 -17 0.0 0.0 0.00 0.00 0.00 1007.3
20260506020529 -17 0.0 0.0 0.00 0.00 0.00 1007.3
20260506020431 -17 0.0 0.0 0.00 0.00 0.00 1007.4
20260506020315 -17 0.0 0.0 0.00 0.00 0.00 1007.3
20260506020239 -17 0.0 0.0 0.00 0.00 0.00 1007.3
20260506020145 -17 0.0 0.0 0.00 0.00 0.00 1007.3
20260506020027 -17 0.0 0.0 0.00 0.00 0.00 1007.3
20260506015951 -17 0.0 0.0 0.00 0.00 0.00 1007.3
20260506015815 -17 0.0 0.0 0.00 0.00 0.00 1007.3
20260506015738 -17 0.0 0.0 0.00 0.00 0.00 1007.2
20260506015641 -17 0.0 0.0 0.00 0.00 0.00 1007.2
20260506015522 -17 0.0 0.0 0.00 0.00 0.00 1007.3
20260506015426 -17 0.0 0.0 0.00 0.00 0.00 1007.3
20260506015314 -17 0.0 0.0 0.00 0.00 0.00 1007.2
20260506015218 -17 0.0 0.0 0.00 0.00 0.00 1007.2
20260506015121 -17 0.0 0.0 0.00 0.00 0.00 1007.2
20260506015025 -17 0.0 0.0 0.00 0.00 0.00 1007.2
20260506014950 -17 0.0 0.0 0.00 0.00 0.00 1007.1
20260506014813 -17 0.0 0.0 0.00 0.00 0.00 1007.1
20260506014740 -17 0.0 0.0 0.00 0.00 0.00 1007.1
20260506014617 -17 0.0 0.0 0.00 0.00 0.00 1007.2
20260506014521 -17 0.0 0.0 0.00 0.00 0.00 1007.2
20260506014444 -17 0.0 0.0 0.00 0.00 0.00 1007.3
20260506014326 -17 0.0 0.0 0.00 0.00 0.00 1007.3
20260506014228 -17 0.0 0.0 0.00 0.00 0.00 1007.2
20260506013409 26 360 8.0 14.5 0.00 0.00 0.00 78 1007.1
20260506013244 26 360 8.0 14.5 0.00 0.00 0.00 78 1007.1
20260506013116 26 360 8.0 14.5 0.00 0.00 0.00 78 1007.1
20260506013017 26 360 8.0 14.5 0.00 0.00 0.00 78 1007.1
20260506012918 26 360 8.0 16.1 0.00 0.00 0.00 78 1007.1
20260506012820 26 360 8.0 16.1 0.00 0.00 0.00 78 1007.1
20260506012724 26 360 8.0 16.1 0.00 0.00 0.00 78 1007.0
20260506012624 26 360 8.0 16.1 0.00 0.00 0.00 78 1007.0
20260506012544 26 360 8.0 16.1 0.00 0.00 0.00 78 1007.0
20260506012424 26 360 8.0 16.1 0.00 0.00 0.00 77 1007.0
20260506012325 26 360 8.0 16.1 0.00 0.00 0.00 77 1007.0
20260506012224 26 360 8.0 16.1 0.00 0.00 0.00 77 1007.0
20260506012126 26 360 8.0 16.1 0.00 0.00 0.00 77 1007.0
20260506012030 26 360 8.0 16.1 0.00 0.00 0.00 77 1007.0
20260506011931 26 360 9.7 16.1 0.00 0.00 0.00 77 1007.1
20260506011831 26 360 9.7 16.1 0.00 0.00 0.00 77 1007.0
20260506011732 26 360 9.7 16.1 0.00 0.00 0.00 77 1007.1
20260506011633 26 360 9.7 16.1 0.00 0.00 0.00 77 1007.0
20260506011534 26 360 9.7 16.1 0.00 0.00 0.00 77 1007.1
20260506011418 26 360 9.7 16.1 0.00 0.00 0.00 77 1007.1
20260506011319 27 360 9.7 16.1 0.00 0.00 0.00 77 1007.1
20260506011219 27 360 9.7 16.1 0.00 0.00 0.00 76 1007.1
20260506011119 27 360 9.7 16.1 0.00 0.00 0.00 76 1007.1
20260506011022 27 360 8.0 14.5 0.00 0.00 0.00 76 1007.2
20260506010921 27 360 8.0 14.5 0.00 0.00 0.00 76 1007.1
20260506010842 27 360 8.0 14.5 0.00 0.00 0.00 76 1007.2
20260506010721 27 360 8.0 14.5 0.00 0.00 0.00 76 1007.3
20260506010624 27 360 8.0 14.5 0.00 0.00 0.00 76 1007.2
20260506010524 27 360 8.0 14.5 0.00 0.00 0.00 76 1007.2
20260506010425 27 360 8.0 14.5 0.00 0.00 0.00 76 1007.2
20260506010325 27 360 8.0 14.5 0.00 0.00 0.00 76 1007.0
20260506010245 27 360 8.0 14.5 0.00 0.00 0.00 76 1007.0
20260506010145 27 360 8.0 14.5 0.00 0.00 0.00 76 1007.0
20260506010024 27 360 8.0 14.5 0.00 0.00 0.00 76 1007.1
20260506005925 27 360 8.0 14.5 0.00 0.00 0.00 76 1007.1
20260506005830 27 360 8.0 14.5 0.00 0.00 0.00 75 1007.1
20260506005732 27 360 8.0 14.5 0.00 0.00 0.00 75 1007.1
20260506005632 27 360 8.0 14.5 0.00 0.00 0.00 75 1007.1
20260506005533 27 360 8.0 14.5 0.00 0.00 0.00 75 1007.0
20260506005433 27 360 8.0 12.9 0.00 0.00 0.00 75 1007.1
20260506005333 27 360 8.0 12.9 0.00 0.00 0.00 75 1007.1
20260506005218 27 360 6.4 12.9 0.00 0.00 0.00 74 1007.1
20260506005119 27 360 6.4 12.9 0.00 0.00 0.00 74 1007.0
20260506005019 27 360 6.4 12.9 0.00 0.00 0.00 74 1007.1
20260506004940 27 360 6.4 12.9 0.00 0.00 0.00 74 1007.1
20260506004820 27 360 6.4 12.9 0.00 0.00 0.00 74 1007.1
20260506004721 27 360 6.4 12.9 0.00 0.00 0.00 74 1007.1
20260506004623 27 360 6.4 12.9 0.00 0.00 0.00 74 1007.2
20260506004528 27 360 6.4 12.9 0.00 0.00 0.00 74 1007.2
20260506004448 27 360 6.4 12.9 0.00 0.00 0.00 74 1007.2
20260506004327 27 360 6.4 12.9 0.00 0.00 0.00 74 1007.1
20260506004228 27 360 6.4 12.9 0.00 0.00 0.00 74 1007.2
20260506004129 27 360 6.4 12.9 0.00 0.00 0.00 74 1007.1
20260506004029 27 360 6.4 12.9 0.00 0.00 0.00 74 1007.1
20260506003930 27 360 6.4 12.9 0.00 0.00 0.00 74 1007.0
20260506003849 27 360 6.4 12.9 0.00 0.00 0.00 74 1007.0
20260506003733 27 360 4.8 12.9 0.00 0.00 0.00 74 1007.1
20260506003634 27 360 4.8 12.9 0.00 0.00 0.00 73 1007.0
20260506003534 27 360 6.4 19.3 0.00 0.00 0.00 73 1007.0
20260506003435 27 360 6.4 19.3 0.00 0.00 0.00 73 1007.0
20260506003316 27 360 6.4 19.3 0.00 0.00 0.00 73 1007.0
20260506003215 27 360 6.4 19.3 0.00 0.00 0.00 73 1007.0
20260506003120 27 360 6.4 19.3 0.00 0.00 0.00 73 1007.0
20260506003021 27 360 6.4 19.3 0.00 0.00 0.00 73 1007.0
20260506002922 27 360 6.4 19.3 0.00 0.00 0.00 73 1007.0
20260506002824 27 360 6.4 19.3 0.00 0.00 0.00 73 1007.0
20260506002724 27 360 6.4 19.3 0.00 0.00 0.00 73 1006.9
20260506002644 27 360 6.4 19.3 0.00 0.00 0.00 73 1006.9
20260506002524 27 360 4.8 19.3 0.00 0.00 0.00 73 1007.0
20260506002429 27 360 4.8 14.5 0.00 0.00 0.00 73 1007.0
20260506002350 27 360 4.8 14.5 0.00 0.00 0.00 73 1007.0
20260506002229 27 360 4.8 14.5 0.00 0.00 0.00 73 1007.0
20260506002129 27 360 4.8 14.5 0.00 0.00 0.00 73 1007.0
20260506002029 27 360 4.8 14.5 0.00 0.00 0.00 73 1007.0
20260506001930 27 360 3.2 14.5 0.00 0.00 0.00 73 1007.0
20260506001851 27 360 3.2 14.5 0.00 0.00 0.00 73 1007.0
20260506001748 27 360 4.8 14.5 0.00 0.00 0.00 73 1007.0
20260506001631 27 360 4.8 14.5 0.00 0.00 0.00 73 1007.0
20260506001531 27 360 4.8 14.5 0.00 0.00 0.00 73 1007.0
20260506001432 27 360 4.8 14.5 0.00 0.00 0.00 73 1007.1
20260506001353 27 360 6.4 14.5 0.00 0.00 0.00 73 1007.0
20260506001234 27 360 6.4 14.5 0.00 0.00 0.00 73 1007.0
20260506001154 27 360 6.4 14.5 0.00 0.00 0.00 73 1007.0
20260506001033 27 360 6.4 14.5 0.00 0.00 0.00 73 1007.0
20260506000917 27 360 6.4 12.9 0.00 0.00 0.00 72 1007.0
20260506000818 27 360 6.4 12.9 0.00 0.00 0.00 72 1007.0
20260506000719 28 360 6.4 12.9 0.00 0.00 0.00 72 1006.9
20260506000619 28 360 4.8 12.9 0.00 0.00 0.00 72 1006.9
20260506000520 28 360 4.8 14.5 0.00 0.00 0.00 72 1006.7
20260506000420 28 360 4.8 14.5 0.00 0.00 0.00 72 1006.8
20260506000322 28 360 6.4 14.5 0.00 0.00 0.00 72 1006.9
20260506000226 28 360 6.4 19.3 0.00 0.00 0.00 72 1006.8
20260506000125 28 360 6.4 19.3 0.00 0.00 0.00 72 1006.9
20260506000027 28 360 6.4 19.3 0.00 0.00 0.00 71 1006.9
20260505235927 28 360 8.0 19.3 0.00 0.00 0.00 71 1006.8
20260505235827 28 360 8.0 19.3 0.00 0.00 0.00 71 1006.9
20260505235729 28 360 8.0 19.3 0.00 0.00 0.00 71 1006.9
20260505235631 28 360 8.0 19.3 0.00 0.00 0.00 71 1006.9
20260505235531 28 360 6.4 16.1 0.00 0.00 0.00 71 1006.9
20260505235432 28 360 6.4 16.1 0.00 0.00 0.00 71 1006.8
20260505235331 28 360 6.4 16.1 0.00 0.00 0.00 72 1006.7
20260505235232 28 360 4.8 16.1 0.00 0.00 0.00 72 1006.7
20260505235133 28 360 4.8 16.1 0.00 0.00 0.00 72 1006.9
20260505235033 28 360 4.8 16.1 0.00 0.00 0.00 72 1006.8
20260505234917 28 360 6.4 22.5 0.00 0.00 0.00 72 1006.8
20260505234817 28 360 4.8 22.5 0.00 0.00 0.00 72 1006.7
20260505234718 28 360 6.4 22.5 0.00 0.00 0.00 72 1006.7
20260505234619 28 360 6.4 22.5 0.00 0.00 0.00 72 1006.7
20260505234518 28 360 8.0 22.5 0.00 0.00 0.00 72 1006.8
20260505234419 28 360 9.7 22.5 0.00 0.00 0.00 71 1006.7
20260505234340 28 360 9.7 22.5 0.00 0.00 0.00 71 1006.6
20260505234224 28 360 8.0 22.5 0.00 0.00 0.00 71 1006.6
20260505234125 28 360 8.0 22.5 0.00 0.00 0.00 71 1006.6
20260505234024 28 360 8.0 22.5 0.00 0.00 0.00 71 1006.6
20260505233925 28 360 6.4 20.9 0.00 0.00 0.00 72 1006.7
20260505233845 28 360 6.4 20.9 0.00 0.00 0.00 72 1006.6
20260505233724 28 360 6.4 20.9 0.00 0.00 0.00 72 1006.7
20260505233624 28 360 6.4 20.9 0.00 0.00 0.00 72 1006.7
20260505233529 28 360 6.4 20.9 0.00 0.00 0.00 72 1006.7
20260505233430 28 360 6.4 20.9 0.00 0.00 0.00 72 1006.7
20260505233331 28 360 8.0 20.9 0.00 0.00 0.00 72 1006.7
20260505233231 28 360 9.7 20.9 0.00 0.00 0.00 72 1006.7
20260505233134 28 360 9.7 20.9 0.00 0.00 0.00 72 1006.8
20260505233034 28 360 9.7 24.1 0.00 0.00 0.00 72 1006.8
20260505232919 28 360 8.0 24.1 0.00 0.00 0.00 72 1006.7
20260505232821 28 360 8.0 24.1 0.00 0.00 0.00 72 1006.7
20260505232720 28 360 9.7 24.1 0.00 0.00 0.00 72 1006.8
20260505232621 28 360 9.7 24.1 0.00 0.00 0.00 72 1006.8
20260505232522 28 360 9.7 24.1 0.00 0.00 0.00 72 1006.7
20260505232423 27 360 11.3 24.1 0.00 0.00 0.00 72 1006.7
20260505232323 27 360 12.9 24.1 0.00 0.00 0.00 72 1006.7
20260505232227 27 360 11.3 24.1 0.00 0.00 0.00 72 1006.7
20260505232128 27 360 9.7 24.1 0.00 0.00 0.00 72 1006.7
20260505232028 27 360 9.7 24.1 0.00 0.00 0.00 72 1006.6
20260505231949 27 360 8.0 24.1 0.00 0.00 0.00 72 1006.7
20260505231827 28 360 8.0 24.1 0.00 0.00 0.00 72 1006.7
20260505231728 28 360 8.0 24.1 0.00 0.00 0.00 71 1006.7
20260505231631 28 360 8.0 20.9 0.00 0.00 0.00 71 1006.7
20260505231535 28 360 8.0 20.9 0.00 0.00 0.00 71 1006.7
20260505231456 28 360 8.0 20.9 0.00 0.00 0.00 71 1006.8
20260505231335 28 360 8.0 20.9 0.00 0.00 0.00 71 1006.8
20260505231216 28 360 8.0 20.9 0.00 0.00 0.00 71 1006.8
20260505231116 28 360 6.4 20.9 0.00 0.00 0.00 71 1006.8
20260505231017 28 360 8.0 20.9 0.00 0.00 0.00 71 1006.7
20260505230916 28 360 8.0 20.9 0.00 0.00 0.00 71 1006.8
20260505230821 28 360 8.0 20.9 0.00 0.00 0.00 71 1006.7
20260505230722 28 360 8.0 20.9 0.00 0.00 0.00 71 1006.7
20260505230643 28 360 9.7 20.9 0.00 0.00 0.00 71 1006.7
20260505230522 28 360 8.0 20.9 0.00 0.00 0.00 71 1006.6
20260505230442 28 360 8.0 20.9 0.00 0.00 0.00 71 1006.6
20260505230316 28 360 9.7 20.9 0.00 0.00 0.00 71 1006.6
20260505230216 28 360 11.3 25.7 0.00 0.00 0.00 71 1006.6
20260505230121 28 360 11.3 25.7 0.00 0.00 0.00 71 1006.6
20260505230021 28 360 11.3 24.1 0.00 0.00 0.00 71 1006.5
20260505225942 28 360 11.3 24.1 0.00 0.00 0.00 71 1006.6
20260505225822 28 360 9.7 24.1 0.00 0.00 0.00 71 1006.6
20260505225744 28 360 9.7 24.1 0.00 0.00 0.00 71 1006.6
20260505225616 28 360 8.0 24.1 0.00 0.00 0.00 71 1006.5
20260505225517 28 360 6.4 24.1 0.00 0.00 0.00 71 1006.5
20260505225421 28 360 6.4 24.1 0.00 0.00 0.00 71 1006.6
20260505225323 28 360 6.4 22.5 0.00 0.00 0.00 71 1006.5
20260505225243 28 360 6.4 22.5 0.00 0.00 0.00 71 1006.5
20260505225116 28 360 8.0 22.5 0.00 0.00 0.00 71 1006.5
20260505225017 28 360 9.7 22.5 0.00 0.00 0.00 71 1006.6
20260505224918 28 360 9.7 22.5 0.00 0.00 0.00 71 1006.6
20260505224822 28 360 8.0 22.5 0.00 0.00 0.00 71 1006.6
20260505224722 28 360 9.7 22.5 0.00 0.00 0.00 70 1006.5
20260505224643 28 360 11.3 22.5 0.00 0.00 0.00 70 1006.5
20260505224516 28 360 9.7 22.5 0.00 0.00 0.00 70 1006.6
20260505224417 28 360 9.7 22.5 0.00 0.00 0.00 70 1006.6
20260505224316 28 360 9.7 22.5 0.00 0.00 0.00 70 1006.6
20260505224217 28 360 9.7 25.7 0.00 0.00 0.00 70 1006.6
20260505224121 28 360 9.7 25.7 0.00 0.00 0.00 70 1006.6
20260505224022 28 360 11.3 25.7 0.00 0.00 0.00 70 1006.5
20260505223922 28 360 9.7 25.7 0.00 0.00 0.00 70 1006.5
20260505223843 28 360 9.7 25.7 0.00 0.00 0.00 70 1006.5
20260505223716 28 360 9.7 25.7 0.00 0.00 0.00 70 1006.5
20260505223617 28 360 12.9 25.7 0.00 0.00 0.00 70 1006.5
20260505223517 28 360 14.5 25.7 0.00 0.00 0.00 70 1006.5
20260505223421 28 360 14.5 25.7 0.00 0.00 0.00 70 1006.5
20260505223322 28 360 12.9 25.7 0.00 0.00 0.00 70 1006.5
20260505223242 28 360 14.5 25.7 0.00 0.00 0.00 69 1006.5
20260505223122 28 360 14.5 25.7 0.00 0.00 0.00 69 1006.5
20260505223022 28 360 14.5 25.7 0.00 0.00 0.00 69 1006.5
20260505222923 28 360 12.9 24.1 0.00 0.00 0.00 70 1006.4
20260505222845 28 360 12.9 24.1 0.00 0.00 0.00 70 1006.5
20260505222724 28 360 14.5 24.1 0.00 0.00 0.00 70 1006.5
20260505222629 28 360 14.5 24.1 0.00 0.00 0.00 70 1006.5
20260505222529 28 360 14.5 24.1 0.00 0.00 0.00 70 1006.4
20260505222430 28 360 14.5 24.1 0.00 0.00 0.00 70 1006.5
20260505222330 28 360 14.5 24.1 0.00 0.00 0.00 70 1006.6
20260505222230 28 360 12.9 24.1 0.00 0.00 0.00 70 1006.5
20260505222130 28 360 12.9 24.1 0.00 0.00 0.00 70 1006.5
20260505222016 28 360 11.3 24.1 0.00 0.00 0.00 70 1006.5
20260505221917 28 360 12.9 27.4 0.00 0.00 0.00 70 1006.6
20260505221817 28 360 14.5 27.4 0.00 0.00 0.00 70 1006.5
20260505221737 28 360 14.5 27.4 0.00 0.00 0.00 70 1006.5
20260505221617 28 360 12.9 27.4 0.00 0.00 0.00 70 1006.5
20260505221516 28 360 12.9 27.4 0.00 0.00 0.00 70 1006.5
20260505221418 28 360 14.5 27.4 0.00 0.00 0.00 70 1006.5
20260505221323 28 360 12.9 27.4 0.00 0.00 0.00 70 1006.5
20260505221223 28 360 11.3 27.4 0.00 0.00 0.00 70 1006.5
20260505221144 28 360 9.7 27.4 0.00 0.00 0.00 70 1006.5
20260505221044 28 360 11.3 27.4 0.00 0.00 0.00 70 1006.5
20260505220924 28 360 11.3 27.4 0.00 0.00 0.00 70 1006.5
20260505220824 28 360 9.7 30.6 0.00 0.00 0.00 70 1006.5
20260505220725 28 360 11.3 30.6 0.00 0.00 0.00 70 1006.5
20260505220629 28 360 12.9 30.6 0.00 0.00 0.00 70 1006.5
20260505220530 28 360 16.1 30.6 0.00 0.00 0.00 70 1006.5
20260505220451 28 360 17.7 30.6 0.00 0.00 0.00 70 1006.5
20260505220329 28 360 17.7 30.6 0.00 0.00 0.00 70 1006.5
20260505220231 28 360 16.1 30.6 0.00 0.00 0.00 70 1006.6
20260505220152 28 360 16.1 30.6 0.00 0.00 0.00 69 1006.6
20260505220051 28 360 14.5 30.6 0.00 0.00 0.00 69 1006.6
20260505215930 28 360 11.3 30.6 0.00 0.00 0.00 69 1006.6
20260505215836 28 360 8.0 29.0 0.00 0.00 0.00 69 1006.6
20260505215717 28 360 6.4 22.5 0.00 0.00 0.00 70 1006.6
20260505215616 28 360 6.4 22.5 0.00 0.00 0.00 70 1006.7
20260505215537 28 360 8.0 25.7 0.00 0.00 0.00 70 1006.7
20260505215416 28 360 9.7 25.7 0.00 0.00 0.00 70 1006.7
20260505215316 28 360 11.3 25.7 0.00 0.00 0.00 70 1006.8
20260505215218 28 360 11.3 25.7 0.00 0.00 0.00 69 1006.7
20260505215122 28 360 11.3 25.7 0.00 0.00 0.00 69 1006.8
20260505215022 28 360 9.7 25.7 0.00 0.00 0.00 69 1006.8
20260505214923 28 360 9.7 25.7 0.00 0.00 0.00 69 1006.8
20260505214824 28 360 9.7 25.7 0.00 0.00 0.00 69 1006.9
20260505214744 28 360 9.7 25.7 0.00 0.00 0.00 69 1006.9
20260505214623 28 360 8.0 25.7 0.00 0.00 0.00 69 1006.9
20260505214524 28 360 9.7 25.7 0.00 0.00 0.00 69 1006.9
20260505214447 28 360 9.7 33.8 0.00 0.00 0.00 69 1006.9
20260505214327 28 360 9.7 33.8 0.00 0.00 0.00 69 1007.0
20260505214246 28 360 11.3 38.6 0.00 0.00 0.00 70 1007.0
20260505214126 28 360 11.3 38.6 0.00 0.00 0.00 70 1007.0
20260505214046 28 360 12.9 38.6 0.00 0.00 0.00 70 1006.9
20260505213926 28 360 14.5 38.6 0.00 0.00 0.00 70 1007.0
20260505213825 28 360 16.1 38.6 0.00 0.00 0.00 70 1007.0
20260505213725 28 360 17.7 38.6 0.00 0.00 0.00 70 1006.9
20260505213644 28 360 17.7 38.6 0.00 0.00 0.00 70 1006.9
20260505213548 28 360 17.7 38.6 0.00 0.00 0.00 70 1006.9
20260505213427 28 360 17.7 38.6 0.00 0.00 0.00 70 1007.0
20260505213327 28 360 19.3 32.2 0.00 0.00 0.00 70 1007.1
20260505213227 28 360 17.7 32.2 0.00 0.00 0.00 70 1007.1
20260505213127 28 360 14.5 32.2 0.00 0.00 0.00 70 1007.1
20260505213028 28 360 14.5 32.2 0.00 0.00 0.00 69 1007.2
20260505212929 28 360 12.9 32.2 0.00 0.00 0.00 69 1007.2
20260505212833 28 360 11.3 27.4 0.00 0.00 0.00 69 1007.2
20260505212735 28 360 9.7 29.0 0.00 0.00 0.00 69 1007.1
20260505212635 28 360 8.0 29.0 0.00 0.00 0.00 69 1007.2
20260505212535 28 360 8.0 33.8 0.00 0.00 0.00 68 1007.2
20260505212435 28 360 8.0 33.8 0.00 0.00 0.00 68 1007.2
20260505212356 28 360 11.3 33.8 0.00 0.00 0.00 69 1007.3
20260505212236 28 360 11.3 33.8 0.00 0.00 0.00 69 1007.2
20260505212120 28 360 14.5 33.8 0.00 0.00 0.00 69 1007.1
20260505212040 28 360 17.7 33.8 0.00 0.00 0.00 69 1007.1
20260505211920 28 360 19.3 33.8 0.00 0.00 0.00 69 1007.0
20260505211820 28 360 19.3 33.8 0.00 0.00 0.00 69 1006.9
20260505211721 28 360 17.7 33.8 0.00 0.00 0.00 69 1007.0
20260505211622 28 360 17.7 33.8 0.00 0.00 0.00 68 1007.0
20260505211522 28 360 16.1 30.6 0.00 0.00 0.00 68 1006.9
20260505211427 28 360 14.5 30.6 0.00 0.00 0.00 68 1006.9
20260505211327 28 360 12.9 35.4 0.00 0.00 0.00 68 1007.0
20260505211228 28 360 11.3 35.4 0.00 0.00 0.00 68 1007.0
20260505211128 28 360 11.3 35.4 0.00 0.00 0.00 68 1007.1
20260505211029 28 360 12.9 35.4 0.00 0.00 0.00 68 1007.1
20260505210926 28 360 12.9 35.4 0.00 0.00 0.00 68 1007.1
20260505210826 28 360 14.5 35.4 0.00 0.00 0.00 68 1007.0
20260505210731 28 360 14.5 35.4 0.00 0.00 0.00 69 1007.1
20260505210630 28 360 14.5 35.4 0.00 0.00 0.00 69 1007.1
20260505210531 28 360 14.5 35.4 0.00 0.00 0.00 69 1007.1
20260505210432 28 360 12.9 35.4 0.00 0.00 0.00 69 1007.1
20260505210334 28 360 12.9 35.4 0.00 0.00 0.00 69 1007.3
20260505210234 28 360 11.3 29.0 0.00 0.00 0.00 69 1007.1
20260505210118 28 360 9.7 24.1 0.00 0.00 0.00 69 1007.3
20260505210039 28 360 9.7 24.1 0.00 0.00 0.00 69 1007.3
20260505205918 28 360 9.7 25.7 0.00 0.00 0.00 69 1007.4
20260505205820 28 360 11.3 30.6 0.00 0.00 0.00 69 1007.4
20260505205719 28 360 11.3 30.6 0.00 0.00 0.00 69 1007.4
20260505205618 28 360 12.9 30.6 0.00 0.00 0.00 69 1007.4
20260505205517 28 360 14.5 30.6 0.00 0.00 0.00 69 1007.4
20260505205417 28 360 14.5 30.6 0.00 0.00 0.00 68 1007.4
20260505205322 28 360 14.5 30.6 0.00 0.00 0.00 68 1007.4
20260505205222 28 360 14.5 30.6 0.00 0.00 0.00 68 1007.4
20260505205121 28 360 12.9 40.2 0.00 0.00 0.00 68 1007.4
20260505205042 28 360 11.3 40.2 0.00 0.00 0.00 69 1007.5
20260505204942 28 360 11.3 40.2 0.00 0.00 0.00 69 1007.3
20260505204821 28 360 9.7 40.2 0.00 0.00 0.00 70 1007.4
20260505204722 28 360 11.3 40.2 0.00 0.00 0.00 69 1007.4
20260505204622 28 360 12.9 40.2 0.00 0.00 0.00 69 1007.5
20260505204547 28 360 12.9 40.2 0.00 0.00 0.00 68 1007.5
20260505204427 28 360 14.5 40.2 0.00 0.00 0.00 68 1007.4
20260505204327 28 360 17.7 40.2 0.00 0.00 0.00 68 1007.5
20260505204228 28 360 20.9 40.2 0.00 0.00 0.00 68 1007.6
20260505204128 28 360 20.9 40.2 0.00 0.00 0.00 69 1007.5
20260505204029 28 360 20.9 40.2 0.00 0.00 0.00 69 1007.4
20260505203929 28 360 20.9 40.2 0.00 0.00 0.00 70 1007.6
20260505203834 28 360 19.3 40.2 0.00 0.00 0.00 69 1007.6
20260505203734 28 360 19.3 40.2 0.00 0.00 0.00 70 1007.7
20260505203634 28 360 17.7 40.2 0.00 0.00 0.00 70 1007.6
20260505203535 28 360 16.1 25.7 0.00 0.00 0.00 72 1007.7
20260505203435 28 360 14.5 25.7 0.00 0.00 0.00 71 1007.7
20260505203335 28 360 12.9 25.7 0.00 0.00 0.00 71 1007.7
20260505203220 28 360 11.3 24.1 0.00 0.00 0.00 72 1007.9
20260505203120 28 360 9.7 24.1 0.00 0.00 0.00 71 1007.9
20260505203020 28 360 9.7 24.1 0.00 0.00 0.00 72 1007.9
20260505202920 28 360 11.3 24.1 0.00 0.00 0.00 72 1008.0
20260505202823 27 360 11.3 24.1 0.00 0.00 0.00 72 1008.0
20260505202723 27 360 12.9 24.1 0.00 0.00 0.00 72 1008.0
20260505202627 27 360 12.9 24.1 0.00 0.00 0.00 72 1008.0
20260505202528 27 360 14.5 24.1 0.00 0.00 0.00 73 1008.0
20260505202428 27 360 12.9 24.1 0.00 0.00 0.00 73 1008.0
20260505202329 27 360 12.9 24.1 0.00 0.00 0.00 72 1008.1
20260505202250 27 360 11.3 27.4 0.00 0.00 0.00 72 1008.1
20260505202128 27 360 11.3 27.4 0.00 0.00 0.00 72 1008.1
20260505202049 27 360 11.3 27.4 0.00 0.00 0.00 72 1008.1
20260505201928 27 360 9.7 27.4 0.00 0.00 0.00 72 1008.1
20260505201833 27 360 8.0 27.4 0.00 0.00 0.00 71 1008.3
20260505201733 27 360 8.0 27.4 0.00 0.00 0.00 71 1008.2
20260505201634 27 360 9.7 27.4 0.00 0.00 0.00 71 1008.2
20260505201534 27 360 11.3 30.6 0.00 0.00 0.00 72 1008.2
20260505201436 27 360 11.3 30.6 0.00 0.00 0.00 72 1008.2
20260505201335 27 360 12.9 30.6 0.00 0.00 0.00 72 1008.3
20260505201220 27 360 16.1 30.6 0.00 0.00 0.00 73 1008.3
20260505201121 27 360 17.7 30.6 0.00 0.00 0.00 72 1008.3
20260505201042 27 360 17.7 30.6 0.00 0.00 0.00 72 1008.4
20260505200921 27 360 19.3 30.6 0.00 0.00 0.00 72 1008.3
20260505200822 27 360 20.9 30.6 0.00 0.00 0.00 72 1008.3
20260505200722 27 360 19.3 30.6 0.00 0.00 0.00 72 1008.3
20260505200643 27 360 16.1 30.6 0.00 0.00 0.00 72 1008.3
20260505200527 27 360 12.9 29.0 0.00 0.00 0.00 71 1008.3
20260505200428 28 360 9.7 30.6 0.00 0.00 0.00 71 1008.4
20260505200328 28 360 9.7 30.6 0.00 0.00 0.00 71 1008.3
20260505200229 28 360 8.0 30.6 0.00 0.00 0.00 71 1008.3
20260505200129 28 360 9.7 30.6 0.00 0.00 0.00 71 1008.3
20260505200029 27 360 11.3 30.6 0.00 0.00 0.00 71 1008.4
20260505195931 27 360 12.9 30.6 0.00 0.00 0.00 70 1008.4
20260505195835 27 360 11.3 30.6 0.00 0.00 0.00 70 1008.4
20260505195736 27 360 11.3 30.6 0.00 0.00 0.00 70 1008.4
20260505195617 28 360 11.3 30.6 0.00 0.00 0.00 70 1008.3
20260505195517 28 360 11.3 30.6 0.00 0.00 0.00 70 1008.4
20260505195418 28 360 12.9 29.0 0.00 0.00 0.00 71 1008.3
20260505195319 28 360 12.9 27.4 0.00 0.00 0.00 71 1008.4
20260505195243 27 360 14.5 27.4 0.00 0.00 0.00 72 1008.5
20260505195123 27 360 14.5 27.4 0.00 0.00 0.00 72 1008.4
20260505195022 27 360 14.5 29.0 0.00 0.00 0.00 72 1008.5
20260505194924 27 360 14.5 29.0 0.00 0.00 0.00 72 1008.5
20260505194825 27 360 16.1 29.0 0.00 0.00 0.00 72 1008.4
20260505194725 27 360 14.5 29.0 0.00 0.00 0.00 72 1008.4
20260505194626 27 360 14.5 29.0 0.00 0.00 0.00 73 1008.4
20260505194530 27 360 14.5 29.0 0.00 0.00 0.00 72 1008.4
20260505194431 27 360 16.1 29.0 0.00 0.00 0.00 72 1008.5
20260505194353 27 360 16.1 29.0 0.00 0.00 0.00 72 1008.6
20260505194232 27 360 14.5 29.0 0.00 0.00 0.00 72 1008.6
20260505194133 27 360 14.5 29.0 0.00 0.00 0.00 71 1008.5
20260505194033 27 360 12.9 24.1 0.00 0.00 0.00 71 1008.6
20260505193918 27 360 9.7 22.5 0.00 0.00 0.00 71 1008.6
20260505193819 27 360 11.3 22.5 0.00 0.00 0.00 71 1008.6
20260505193719 27 360 11.3 22.5 0.00 0.00 0.00 73 1008.6
20260505193619 27 360 9.7 22.5 0.00 0.00 0.00 73 1008.6
20260505193519 27 360 11.3 22.5 0.00 0.00 0.00 73 1008.5
20260505193418 27 360 14.5 22.5 0.00 0.00 0.00 73 1008.6
20260505193339 27 360 12.9 30.6 0.00 0.00 0.00 73 1008.7
20260505193218 27 360 12.9 30.6 0.00 0.00 0.00 73 1008.6
20260505193139 27 360 11.3 30.6 0.00 0.00 0.00 72 1008.6
20260505193041 27 360 11.3 30.6 0.00 0.00 0.00 72 1008.6
20260505192921 27 360 9.7 30.6 0.00 0.00 0.00 73 1008.7
20260505192822 27 360 8.0 33.8 0.00 0.00 0.00 72 1008.7
20260505192722 27 360 11.3 33.8 0.00 0.00 0.00 72 1008.7
20260505192621 27 360 11.3 33.8 0.00 0.00 0.00 72 1008.7
20260505192543 27 360 11.3 33.8 0.00 0.00 0.00 73 1008.7
20260505192416 27 360 12.9 35.4 0.00 0.00 0.00 73 1008.7
20260505192320 27 360 14.5 35.4 0.00 0.00 0.00 73 1008.7
20260505192220 27 360 16.1 35.4 0.00 0.00 0.00 73 1008.7
20260505192122 27 360 14.5 35.4 0.00 0.00 0.00 73 1008.6
20260505192023 27 360 14.5 35.4 0.00 0.00 0.00 73 1008.6
20260505191924 27 360 12.9 35.4 0.00 0.00 0.00 73 1008.6
20260505191824 27 360 12.9 35.4 0.00 0.00 0.00 73 1008.7
20260505191728 27 360 12.9 35.4 0.00 0.00 0.00 73 1008.7
20260505191628 27 360 16.1 35.4 0.00 0.00 0.00 73 1008.6
20260505191529 27 360 16.1 35.4 0.00 0.00 0.00 73 1008.7
20260505191449 27 360 17.7 35.4 0.00 0.00 0.00 73 1008.7
20260505191330 27 360 19.3 35.4 0.00 0.00 0.00 73 1008.7
20260505191231 27 360 16.1 35.4 0.00 0.00 0.00 74 1008.7
20260505191132 27 360 16.1 29.0 0.00 0.00 0.00 73 1008.7
20260505191016 27 360 12.9 29.0 0.00 0.00 0.00 73 1008.7
20260505190917 27 360 12.9 29.0 0.00 0.00 0.00 74 1008.6
20260505190817 27 360 12.9 29.0 0.00 0.00 0.00 74 1008.7
20260505190717 27 360 12.9 29.0 0.00 0.00 0.00 74 1008.6
20260505190618 27 360 14.5 29.0 0.00 0.00 0.00 73 1008.6
20260505190539 27 360 9.7 25.7 0.00 0.00 0.00 73 1008.7
20260505190418 27 360 9.7 29.0 0.00 0.00 0.00 73 1008.7
20260505190343 27 360 8.0 29.0 0.00 0.00 0.00 73 1008.7
20260505190216 27 360 8.0 29.0 0.00 0.00 0.00 73 1008.8
20260505190118 27 360 6.4 29.0 0.00 0.00 0.00 75 1008.8
20260505190019 27 360 8.0 29.0 0.00 0.00 0.00 75 1008.9
20260505185919 26 360 9.7 29.0 0.00 0.00 0.00 75 1008.8
20260505185840 26 360 9.7 29.0 0.00 0.00 0.00 75 1008.8
20260505185739 26 360 11.3 29.0 0.00 0.00 0.00 75 1008.8
20260505185622 26 360 12.9 29.0 0.00 0.00 0.00 75 1008.9
20260505185522 26 360 12.9 29.0 0.00 0.00 0.00 75 1008.9
20260505185423 26 360 14.5 29.0 0.00 0.00 0.00 75 1009.0
20260505185323 26 360 14.5 29.0 0.00 0.00 0.00 74 1008.9
20260505185243 26 360 12.9 29.0 0.00 0.00 0.00 74 1008.9
20260505185123 26 360 11.3 29.0 0.00 0.00 0.00 74 1008.9
20260505185023 26 360 11.3 29.0 0.00 0.00 0.00 73 1009.0
20260505184928 27 360 11.3 29.0 0.00 0.00 0.00 73 1009.0
20260505184848 27 360 11.3 29.0 0.00 0.00 0.00 74 1009.0
20260505184748 27 360 9.7 20.9 0.00 0.00 0.00 74 1009.0
20260505184627 27 360 8.0 20.9 0.00 0.00 0.00 74 1008.9
20260505184527 27 360 9.7 19.3 0.00 0.00 0.00 74 1009.0
20260505184428 27 360 9.7 19.3 0.00 0.00 0.00 75 1009.0
20260505184348 27 360 8.0 19.3 0.00 0.00 0.00 75 1009.0
20260505184227 27 360 6.4 19.3 0.00 0.00 0.00 74 1009.1
20260505184132 27 360 6.4 19.3 0.00 0.00 0.00 73 1009.0
20260505184032 27 360 6.4 19.3 0.00 0.00 0.00 73 1009.0
20260505183933 27 360 6.4 19.3 0.00 0.00 0.00 74 1009.1
20260505183833 27 360 6.4 19.3 0.00 0.00 0.00 74 1009.1
20260505183734 26 360 6.4 19.3 0.00 0.00 0.00 73 1009.1
20260505183654 26 360 8.0 19.3 0.00 0.00 0.00 74 1009.2
20260505183534 26 360 8.0 19.3 0.00 0.00 0.00 74 1009.1
20260505183439 26 360 8.0 19.3 0.00 0.00 0.00 74 1009.2
20260505183318 26 360 8.0 20.9 0.00 0.00 0.00 74 1009.2
20260505183219 26 360 8.0 20.9 0.00 0.00 0.00 74 1009.2
20260505183119 26 360 8.0 20.9 0.00 0.00 0.00 75 1009.3
20260505183020 26 360 8.0 20.9 0.00 0.00 0.00 75 1009.2
20260505182920 26 360 6.4 20.9 0.00 0.00 0.00 74 1009.3
20260505182822 26 360 8.0 20.9 0.00 0.00 0.00 74 1009.2
20260505182725 26 360 8.0 20.9 0.00 0.00 0.00 75 1009.2
20260505182625 26 360 8.0 20.9 0.00 0.00 0.00 75 1009.2
20260505182546 26 360 8.0 20.9 0.00 0.00 0.00 75 1009.4
20260505182425 26 360 8.0 20.9 0.00 0.00 0.00 75 1009.4
20260505182327 26 360 6.4 19.3 0.00 0.00 0.00 75 1009.4
20260505182246 26 360 4.8 19.3 0.00 0.00 0.00 75 1009.4
20260505182125 26 360 6.4 19.3 0.00 0.00 0.00 75 1009.4
20260505182029 26 360 4.8 19.3 0.00 0.00 0.00 75 1009.4
20260505181931 26 360 6.4 19.3 0.00 0.00 0.00 75 1009.5
20260505181830 26 360 6.4 20.9 0.00 0.00 0.00 75 1009.4
20260505181728 26 360 6.4 20.9 0.00 0.00 0.00 75 1009.5
20260505181648 26 360 8.0 20.9 0.00 0.00 0.00 75 1009.5
20260505181525 26 360 8.0 20.9 0.00 0.00 0.00 75 1009.5
20260505181425 26 360 8.0 22.5 0.00 0.00 0.00 75 1009.5
20260505181330 26 360 8.0 22.5 0.00 0.00 0.00 75 1009.5
20260505181252 26 360 9.7 22.5 0.00 0.00 0.00 75 1009.5
20260505181131 26 360 8.0 22.5 0.00 0.00 0.00 75 1009.5
20260505181031 26 360 8.0 22.5 0.00 0.00 0.00 76 1009.5
20260505180931 26 360 6.4 22.5 0.00 0.00 0.00 76 1009.4
20260505180831 26 360 6.4 22.5 0.00 0.00 0.00 76 1009.5
20260505180733 26 360 6.4 22.5 0.00 0.00 0.00 76 1009.4
20260505180617 26 360 4.8 22.5 0.00 0.00 0.00 77 1009.6
20260505180518 26 360 4.8 22.5 0.00 0.00 0.00 77 1009.6
20260505180417 25 360 6.4 22.5 0.00 0.00 0.00 77 1009.5
20260505180318 25 360 8.0 22.5 0.00 0.00 0.00 77 1009.6
20260505180218 25 360 8.0 22.5 0.00 0.00 0.00 77 1009.6
20260505180120 25 360 8.0 22.5 0.00 0.00 0.00 77 1009.6
20260505180020 25 360 8.0 22.5 0.00 0.00 0.00 77 1009.6
20260505175924 25 360 8.0 22.5 0.00 0.00 0.00 77 1009.6
20260505175826 25 360 8.0 22.5 0.00 0.00 0.00 77 1009.6
20260505175725 25 360 8.0 20.9 0.00 0.00 0.00 77 1009.7
20260505175625 25 360 8.0 19.3 0.00 0.00 0.00 77 1009.7
20260505175525 25 360 6.4 19.3 0.00 0.00 0.00 77 1009.7
20260505175427 25 360 8.0 19.3 0.00 0.00 0.00 77 1009.7
20260505175330 25 360 8.0 22.5 0.00 0.00 0.00 78 1009.7
20260505175231 25 360 8.0 22.5 0.00 0.00 0.00 79 1009.7
20260505175152 25 360 8.0 22.5 0.00 0.00 0.00 77 1009.8
20260505175032 25 360 8.0 22.5 0.00 0.00 0.00 77 1009.7
20260505174932 25 360 8.0 22.5 0.00 0.00 0.00 78 1009.8
20260505174833 25 360 8.0 22.5 0.00 0.00 0.00 78 1009.8
20260505174733 25 360 8.0 22.5 0.00 0.00 0.00 78 1009.8
20260505174618 25 360 9.7 22.5 0.00 0.00 0.00 78 1009.8
20260505174517 25 360 11.3 22.5 0.00 0.00 0.00 78 1009.9
20260505174418 25 360 12.9 20.9 0.00 0.00 0.00 78 1009.9
20260505174339 25 360 12.9 20.9 0.00 0.00 0.00 78 1009.9
20260505174239 25 360 11.3 20.9 0.00 0.00 0.00 79 1009.8
20260505174138 25 360 11.3 20.9 0.00 0.00 0.00 79 1009.8
20260505174058 25 360 9.7 20.9 0.00 0.00 0.00 79 1009.9
20260505173957 25 360 9.7 20.9 0.00 0.00 0.00 79 1009.9
20260505173857 25 360 8.0 20.9 0.00 0.00 0.00 80 1009.8
20260505173739 25 360 6.4 20.9 0.00 0.00 0.00 80 1010.3
20260505173620 25 360 6.4 20.9 0.00 0.00 0.00 79 1009.9
20260505173540 25 360 6.4 20.9 0.00 0.00 0.00 80 1009.9
20260505173419 25 360 6.4 19.3 0.00 0.00 0.00 80 1009.8
20260505173319 25 360 6.4 19.3 0.00 0.00 0.00 80 1009.9
20260505173220 25 360 6.4 19.3 0.00 0.00 0.00 80 1009.9
20260505173120 24 360 6.4 19.3 0.00 0.00 0.00 80 1009.9
20260505173025 24 360 4.8 25.7 0.00 0.00 0.00 80 1010.0
20260505172925 24 360 4.8 25.7 0.00 0.00 0.00 80 1010.0
20260505172846 24 360 4.8 25.7 0.00 0.00 0.00 80 1010.0
20260505172725 24 360 6.4 25.7 0.00 0.00 0.00 80 1010.0
20260505172624 24 360 6.4 25.7 0.00 0.00 0.00 80 1010.0
20260505172524 24 360 8.0 25.7 0.00 0.00 0.00 80 1010.0
20260505172424 24 360 8.0 25.7 0.00 0.00 0.00 80 1010.1
20260505172324 24 360 9.7 25.7 0.00 0.00 0.00 80 1010.0
20260505172229 24 360 9.7 25.7 0.00 0.00 0.00 80 1010.0
20260505172130 24 360 9.7 25.7 0.00 0.00 0.00 80 1010.1
20260505172051 24 360 8.0 25.7 0.00 0.00 0.00 80 1010.1
20260505171931 24 360 6.4 19.3 0.00 0.00 0.00 80 1010.1
20260505171831 24 360 4.8 19.3 0.00 0.00 0.00 80 1010.1
20260505171751 24 360 3.2 16.1 0.00 0.00 0.00 80 1010.1
20260505171631 24 360 3.2 16.1 0.00 0.00 0.00 81 1010.1
20260505171551 24 360 3.2 16.1 0.00 0.00 0.00 81 1010.1
20260505171435 24 360 3.2 16.1 0.00 0.00 0.00 81 1010.1
20260505171336 24 360 3.2 16.1 0.00 0.00 0.00 81 1010.1
20260505171216 23 360 4.8 16.1 0.00 0.00 0.00 81 1010.0
20260505171117 23 209 4.8 16.1 0.00 0.00 0.00 81 1010.1
20260505171018 23 360 6.4 16.1 0.00 0.00 0.00 81 1010.1
20260505170919 24 360 6.4 20.9 0.00 0.00 0.00 81 1010.2
20260505170823 24 360 6.4 20.9 0.00 0.00 0.00 81 1010.1
20260505170722 24 360 6.4 20.9 0.00 0.00 0.00 81 1010.2
20260505170622 23 360 6.4 20.9 0.00 0.00 0.00 81 1010.2
20260505170523 23 360 6.4 20.9 0.00 0.00 0.00 81 1010.2
20260505170423 23 360 6.4 20.9 0.00 0.00 0.00 81 1010.2
20260505170323 23 360 6.4 20.9 0.00 0.00 0.00 81 1010.3
20260505170223 23 360 6.4 20.9 0.00 0.00 0.00 81 1010.1
20260505170127 23 360 6.4 20.9 0.00 0.00 0.00 81 1010.1
20260505170048 23 360 6.4 16.1 0.00 0.00 0.00 82 1010.2
20260505165927 23 360 4.8 16.1 0.00 0.00 0.00 82 1010.1
20260505165849 23 360 4.8 16.1 0.00 0.00 0.00 81 1010.2
20260505165808 23 360 4.8 16.1 0.00 0.00 0.00 81 1010.2
20260505165726 23 360 4.8 16.1 0.00 0.00 0.00 81 1010.2
20260505165627 23 360 4.8 16.1 0.00 0.00 0.00 81 1010.2
20260505165547 23 360 4.8 16.1 0.00 0.00 0.00 81 1010.2
20260505165427 23 360 3.2 16.1 0.00 0.00 0.00 82 1010.2
20260505165328 23 360 3.2 16.1 0.00 0.00 0.00 82 1010.2
20260505165232 23 360 3.2 16.1 0.00 0.00 0.00 82 1010.1
20260505165132 23 360 3.2 16.1 0.00 0.00 0.00 82 1010.2
20260505165033 23 360 3.2 20.9 0.00 0.00 0.00 82 1010.1
20260505164933 23 360 3.2 20.9 0.00 0.00 0.00 82 1010.1
20260505164835 23 360 3.2 20.9 0.00 0.00 0.00 82 1010.2
20260505164735 23 360 4.8 20.9 0.00 0.00 0.00 82 1010.2
20260505164619 23 360 4.8 20.9 0.00 0.00 0.00 82 1010.1
20260505164520 23 360 4.8 20.9 0.00 0.00 0.00 82 1010.2
20260505164421 23 360 6.4 20.9 0.00 0.00 0.00 83 1010.1
20260505164342 23 360 6.4 20.9 0.00 0.00 0.00 83 1010.1
20260505164215 23 360 6.4 20.9 0.00 0.00 0.00 83 1010.1
20260505164135 23 360 6.4 20.9 0.00 0.00 0.00 83 1010.1
20260505164056 23 360 8.0 20.9 0.00 0.00 0.00 83 1010.2
20260505163919 23 360 8.0 20.9 0.00 0.00 0.00 83 1010.1
20260505163820 23 360 8.0 20.9 0.00 0.00 0.00 83 1010.1
20260505163719 23 360 8.0 20.9 0.00 0.00 0.00 84 1010.1
20260505163620 23 360 8.0 20.9 0.00 0.00 0.00 84 1010.0
20260505163540 22 360 8.0 20.9 0.00 0.00 0.00 84 1010.1
20260505163420 22 360 8.0 20.9 0.00 0.00 0.00 84 1010.1
20260505163321 22 360 8.0 20.9 0.00 0.00 0.00 84 1010.1
20260505163226 22 360 8.0 20.9 0.00 0.00 0.00 84 1010.1
20260505163125 22 360 8.0 20.9 0.00 0.00 0.00 84 1010.1
20260505163027 22 360 8.0 20.9 0.00 0.00 0.00 84 1010.0
20260505162927 22 360 6.4 20.9 0.00 0.00 0.00 83 1010.0
20260505162828 22 360 6.4 20.9 0.00 0.00 0.00 83 1010.0
20260505162730 22 360 4.8 20.9 0.00 0.00 0.00 84 1010.0
20260505162650 22 360 3.2 17.7 0.00 0.00 0.00 84 1010.0
20260505162532 22 360 3.2 17.7 0.00 0.00 0.00 84 1010.1
20260505162432 22 360 3.2 17.7 0.00 0.00 0.00 83 1010.0
20260505162352 22 360 3.2 17.7 0.00 0.00 0.00 83 1010.1
20260505162232 22 360 3.2 17.7 0.00 0.00 0.00 83 1010.0
20260505162152 22 360 4.8 17.7 0.00 0.00 0.00 83 1010.1
20260505162032 22 360 4.8 19.3 0.00 0.00 0.00 84 1010.0
20260505161932 22 360 4.8 19.3 0.00 0.00 0.00 84 1010.1
20260505161817 22 360 6.4 19.3 0.00 0.00 0.00 84 1010.1
20260505161717 22 360 6.4 19.3 0.00 0.00 0.00 84 1010.1
20260505161617 22 360 8.0 19.3 0.00 0.00 0.00 85 1010.2
20260505161538 22 360 8.0 19.3 0.00 0.00 0.00 85 1010.2
20260505161416 22 360 8.0 19.3 0.00 0.00 0.00 85 1010.2
20260505161317 22 360 8.0 19.3 0.00 0.00 0.00 85 1010.2
20260505161217 22 360 8.0 19.3 0.00 0.00 0.00 84 1010.2
20260505161118 22 360 6.4 17.7 0.00 0.00 0.00 84 1010.2
20260505161023 22 360 6.4 14.5 0.00 0.00 0.00 85 1010.2
20260505160923 22 360 4.8 14.5 0.00 0.00 0.00 85 1010.1
20260505160823 22 360 4.8 14.5 0.00 0.00 0.00 85 1010.2
20260505160724 22 360 4.8 14.5 0.00 0.00 0.00 85 1010.1
20260505160624 22 360 4.8 14.5 0.00 0.00 0.00 85 1010.2
20260505160523 22 360 4.8 14.5 0.00 0.00 0.00 85 1010.2
20260505160444 22 360 4.8 14.5 0.00 0.00 0.00 85 1010.2
20260505160328 22 360 4.8 14.5 0.00 0.00 0.00 85 1010.2
20260505160228 22 360 4.8 14.5 0.00 0.00 0.00 85 1010.2
20260505160127 22 360 4.8 14.5 0.00 0.00 0.00 85 1010.1
20260505153339 22 360 4.8 14.5 0.00 0.00 0.00 87 1010.3
20260505153217 22 360 3.2 9.7 0.00 0.00 0.00 87 1010.3
20260505153118 22 360 3.2 9.7 0.00 0.00 0.00 87 1010.2
20260505153039 22 360 3.2 9.7 0.00 0.00 0.00 87 1010.3
20260505152919 22 360 3.2 9.7 0.00 0.00 0.00 87 1010.3
20260505152820 22 360 3.2 17.7 0.00 0.00 0.00 87 1010.2
20260505152724 22 360 3.2 17.7 0.00 0.00 0.00 87 1010.2
20260505152624 22 360 3.2 17.7 0.00 0.00 0.00 87 1010.2
20260505152525 22 360 3.2 17.7 0.00 0.00 0.00 87 1010.1
20260505152425 22 360 4.8 17.7 0.00 0.00 0.00 87 1010.2
20260505152325 22 360 6.4 17.7 0.00 0.00 0.00 87 1010.1
20260505152225 22 360 6.4 17.7 0.00 0.00 0.00 87 1010.1
20260505152125 22 360 8.0 17.7 0.00 0.00 0.00 87 1010.1
20260505152046 21 360 8.0 17.7 0.00 0.00 0.00 87 1010.1
20260505151929 21 360 6.4 17.7 0.00 0.00 0.00 87 1010.1
20260505151829 21 360 4.8 17.7 0.00 0.00 0.00 87 1010.2
20260505151730 21 360 6.4 17.7 0.00 0.00 0.00 87 1010.1
20260505151630 21 360 4.8 17.7 0.00 0.00 0.00 87 1010.2
20260505151551 21 360 6.4 17.7 0.00 0.00 0.00 87 1010.3
20260505151431 21 360 6.4 25.7 0.00 0.00 0.00 87 1010.3
20260505151331 21 360 6.4 25.7 0.00 0.00 0.00 87 1010.3
20260505151236 21 360 6.4 25.7 0.00 0.00 0.00 87 1010.3
20260505151135 21 360 6.4 25.7 0.00 0.00 0.00 88 1010.2
20260505151035 21 360 6.4 25.7 0.00 0.00 0.00 88 1010.1
20260505150935 21 360 6.4 25.7 0.00 0.00 0.00 88 1010.1
20260505150816 21 360 8.0 25.7 0.00 0.00 0.00 88 1010.0
20260505150716 21 360 6.4 25.7 0.00 0.00 0.00 88 1009.9
20260505150621 21 360 8.0 25.7 0.00 0.00 0.00 88 1010.0
20260505150522 21 360 4.8 24.1 0.00 0.00 0.00 88 1009.9
20260505150422 21 360 4.8 24.1 0.00 0.00 0.00 88 1009.9
20260505150342 21 360 6.4 24.1 0.00 0.00 0.00 88 1009.9
20260505150221 21 360 8.0 24.1 0.00 0.00 0.00 88 1009.9
20260505150122 21 360 8.0 24.1 0.00 0.00 0.00 88 1009.8
20260505140617 21 360 3.2 25.7 0.00 0.00 0.00 88 1009.7
20260505140519 21 360 3.2 25.7 0.00 0.00 0.00 88 1009.7
20260505140417 21 360 4.8 25.7 0.00 0.00 0.00 88 1009.7
20260505140318 21 360 6.4 25.7 0.00 0.00 0.00 88 1009.6
20260505140223 21 360 8.0 25.7 0.00 0.00 0.00 88 1009.6
20260505140123 21 360 8.0 25.7 0.00 0.00 0.00 88 1009.7
20260505130217 21 360 6.4 25.7 0.00 0.00 0.00 87 1009.1
20260505130118 21 360 6.4 25.7 0.00 0.00 0.00 87 1009.2
20260505125026 21 360 9.7 30.6 0.00 0.00 0.00 87 1008.9
20260505124927 21 360 11.3 30.6 0.00 0.00 0.00 88 1008.9
20260505124827 21 360 11.3 30.6 0.00 0.00 0.00 87 1008.9
20260505124747 21 360 11.3 30.6 0.00 0.00 0.00 88 1008.8
20260505124627 21 360 11.3 30.6 0.00 0.00 0.00 87 1008.9
20260505124548 21 360 11.3 30.6 0.00 0.00 0.00 87 1008.9
20260505124427 21 360 11.3 30.6 0.00 0.00 0.00 87 1008.7
20260505124329 21 360 9.7 30.6 0.00 0.00 0.00 88 1008.8
20260505124254 21 360 9.7 22.5 0.00 0.00 0.00 88 1008.8
20260505124134 21 360 8.0 22.5 0.00 0.00 0.00 88 1008.8
20260505124055 21 360 6.4 19.3 0.00 0.00 0.00 88 1008.8
20260505123934 21 360 6.4 19.3 0.00 0.00 0.00 88 1008.8
20260505123835 21 360 6.4 22.5 0.00 0.00 0.00 88 1008.7
20260505123735 21 360 4.8 22.5 0.00 0.00 0.00 88 1008.7
20260505123617 21 360 3.2 22.5 0.00 0.00 0.00 88 1008.7
20260505123542 21 360 3.2 22.5 0.00 0.00 0.00 88 1008.7
20260505123416 21 360 6.4 22.5 0.00 0.00 0.00 88 1008.7
20260505123316 21 360 6.4 22.5 0.00 0.00 0.00 88 1008.7
20260505123217 21 360 8.0 22.5 0.00 0.00 0.00 88 1008.6
20260505123137 21 360 8.0 22.5 0.00 0.00 0.00 88 1008.6
20260505123016 21 360 8.0 22.5 0.00 0.00 0.00 87 1008.6
20260505122917 21 360 8.0 22.5 0.00 0.00 0.00 87 1008.6
20260505122822 21 360 8.0 25.7 0.00 0.00 0.00 87 1008.6
20260505122721 21 360 8.0 25.7 0.00 0.00 0.00 87 1008.6
20260505122622 21 360 8.0 25.7 0.00 0.00 0.00 87 1008.6
20260505122523 21 360 9.7 25.7 0.00 0.00 0.00 87 1008.5
20260505122444 21 360 9.7 25.7 0.00 0.00 0.00 87 1008.6
20260505122323 21 360 8.0 25.7 0.00 0.00 0.00 87 1008.5
20260505122223 21 360 8.0 25.7 0.00 0.00 0.00 87 1008.5
20260505122148 21 360 9.7 25.7 0.00 0.00 0.00 87 1008.5
20260505122027 21 360 11.3 25.7 0.00 0.00 0.00 87 1008.5
20260505121948 21 360 11.3 25.7 0.00 0.00 0.00 87 1008.5
20260505121828 21 360 11.3 24.1 0.00 0.00 0.00 87 1008.4
20260505121748 21 360 9.7 24.1 0.00 0.00 0.00 87 1008.5
20260505121627 21 360 11.3 24.1 0.00 0.00 0.00 87 1008.4
20260505121528 21 360 9.7 24.1 0.00 0.00 0.00 87 1008.3
20260505121429 21 360 9.7 24.1 0.00 0.00 0.00 87 1008.3
20260505121333 21 360 9.7 24.1 0.00 0.00 0.00 87 1008.3
20260505121233 21 360 9.7 24.1 0.00 0.00 0.00 87 1008.2
20260505121155 21 360 9.7 24.1 0.00 0.00 0.00 87 1008.3
20260505121035 21 360 9.7 24.1 0.00 0.00 0.00 87 1008.3
20260505120936 21 360 9.7 24.1 0.00 0.00 0.00 87 1008.3
20260505120857 21 360 9.7 24.1 0.00 0.00 0.00 87 1008.3
20260505120755 21 360 8.0 24.1 0.00 0.00 0.00 87 1008.2
20260505120620 21 360 8.0 22.5 0.00 0.00 0.00 87 1008.4
20260505120521 21 360 8.0 22.5 0.00 0.00 0.00 87 1008.3
20260505120422 21 360 8.0 22.5 0.00 0.00 0.00 87 1008.3
20260505120321 21 360 6.4 22.5 0.00 0.00 0.00 87 1008.4
20260505120222 21 360 4.8 22.5 0.00 0.00 0.00 87 1008.4
20260505120142 21 360 6.4 22.5 0.00 0.00 0.00 87 1008.4
20260505120023 21 360 4.8 16.1 0.00 0.00 0.00 87 1008.4
20260505115926 21 360 4.8 16.1 0.00 0.00 0.00 87 1008.4
20260505115827 21 360 6.4 16.1 0.00 0.00 0.00 87 1008.3
20260505115729 21 360 8.0 16.1 0.00 0.00 0.00 87 1008.3
20260505115629 21 360 6.4 16.1 0.00 0.00 0.00 87 1008.3
20260505115529 21 360 6.4 16.1 0.00 0.00 0.00 87 1008.3
20260505115429 21 360 6.4 19.3 0.00 0.00 0.00 87 1008.2
20260505115330 21 360 6.4 20.9 0.00 0.00 0.00 87 1008.3
20260505115234 21 360 6.4 20.9 0.00 0.00 0.00 87 1008.3
20260505115135 21 360 8.0 20.9 0.00 0.00 0.00 87 1008.3
20260505115016 21 360 8.0 20.9 0.00 0.00 0.00 87 1008.3
20260505114937 21 360 8.0 20.9 0.00 0.00 0.00 87 1008.3
20260505114836 21 360 9.7 20.9 0.00 0.00 0.00 87 1008.3
20260505114716 21 360 8.0 20.9 0.00 0.00 0.00 87 1008.3
20260505114617 21 360 8.0 20.9 0.00 0.00 0.00 87 1008.3
20260505114522 21 360 8.0 20.9 0.00 0.00 0.00 87 1008.4
20260505114443 21 360 8.0 20.9 0.00 0.00 0.00 87 1008.3
20260505114322 21 360 8.0 20.9 0.00 0.00 0.00 87 1008.3
20260505114242 21 360 8.0 20.9 0.00 0.00 0.00 87 1008.3
20260505114142 21 360 8.0 20.9 0.00 0.00 0.00 87 1008.2
20260505114043 21 360 8.0 19.3 0.00 0.00 0.00 87 1008.2
20260505113921 21 360 8.0 19.3 0.00 0.00 0.00 87 1008.2
20260505113822 21 360 8.0 19.3 0.00 0.00 0.00 87 1008.2
20260505113727 21 360 8.0 19.3 0.00 0.00 0.00 87 1008.2
20260505113627 21 360 8.0 19.3 0.00 0.00 0.00 87 1008.1
20260505113548 21 360 8.0 19.3 0.00 0.00 0.00 87 1008.1
20260505113428 21 360 6.4 16.1 0.00 0.00 0.00 87 1008.1
20260505113348 21 360 6.4 16.1 0.00 0.00 0.00 87 1008.0
20260505113228 21 360 6.4 16.1 0.00 0.00 0.00 87 1008.1
20260505113129 21 360 6.4 16.1 0.00 0.00 0.00 87 1008.1
20260505113051 21 360 6.4 20.9 0.00 0.00 0.00 87 1008.0
20260505112934 21 360 6.4 20.9 0.00 0.00 0.00 87 1007.9
20260505112834 21 360 6.4 20.9 0.00 0.00 0.00 87 1007.9
20260505112735 21 360 6.4 20.9 0.00 0.00 0.00 87 1008.0
20260505112654 21 360 6.4 20.9 0.00 0.00 0.00 87 1008.0
20260505112533 21 360 6.4 20.9 0.00 0.00 0.00 87 1008.1
20260505112434 21 360 6.4 20.9 0.00 0.00 0.00 87 1008.2
20260505112334 21 360 6.4 24.1 0.00 0.00 0.00 87 1008.2
20260505112235 21 360 4.8 24.1 0.00 0.00 0.00 87 1008.2
20260505112119 21 360 6.4 24.1 0.00 0.00 0.00 87 1008.3
20260505112019 21 360 4.8 24.1 0.00 0.00 0.00 87 1008.3
20260505111919 21 360 4.8 24.1 0.00 0.00 0.00 87 1008.2
20260505111820 21 360 6.4 24.1 0.00 0.00 0.00 87 1008.1
20260505111721 21 360 8.0 24.1 0.00 0.00 0.00 87 1008.1
20260505111621 21 360 8.0 22.5 0.00 0.00 0.00 87 1008.1
20260505111522 21 360 6.4 22.5 0.00 0.00 0.00 87 1008.1
20260505111426 21 360 6.4 22.5 0.00 0.00 0.00 87 1008.1
20260505111327 21 360 6.4 22.5 0.00 0.00 0.00 87 1008.2
20260505111228 21 360 6.4 22.5 0.00 0.00 0.00 87 1008.1
20260505111128 21 360 6.4 22.5 0.00 0.00 0.00 87 1008.1
20260505111029 21 360 8.0 22.5 0.00 0.00 0.00 87 1008.2
20260505110930 21 360 8.0 22.5 0.00 0.00 0.00 87 1008.2
20260505110830 21 360 9.7 22.5 0.00 0.00 0.00 87 1008.3
20260505110735 21 360 11.3 22.5 0.00 0.00 0.00 87 1008.3
20260505110636 21 360 9.7 22.5 0.00 0.00 0.00 87 1008.3
20260505110535 21 360 11.3 22.5 0.00 0.00 0.00 87 1008.3
20260505110416 21 360 11.3 22.5 0.00 0.00 0.00 87 1008.4
20260505110317 21 360 11.3 22.5 0.00 0.00 0.00 87 1008.4
20260505110217 21 360 9.7 22.5 0.00 0.00 0.00 87 1008.4
20260505110122 21 360 9.7 19.3 0.00 0.00 0.00 87 1008.5
20260505102120 21 360 12.9 30.6 0.00 0.00 0.00 87 1008.5
20260505102024 21 360 12.9 30.6 0.00 0.00 0.00 87 1008.5
20260505101924 21 360 9.7 25.7 0.00 0.00 0.00 87 1008.5
20260505101845 21 360 9.7 25.7 0.00 0.00 0.00 87 1008.5
20260505101724 21 360 11.3 25.7 0.00 0.00 0.00 87 1008.4
20260505101644 21 360 11.3 25.7 0.00 0.00 0.00 87 1008.4
20260505101524 21 360 11.3 25.7 0.00 0.00 0.00 87 1008.5
20260505101424 21 360 11.3 40.2 0.00 0.00 0.00 87 1008.4
20260505101329 21 360 11.3 40.2 0.00 0.00 0.00 87 1008.4
20260505101229 21 360 14.5 40.2 0.00 0.00 0.00 87 1008.3
20260505101129 21 360 14.5 40.2 0.00 0.00 0.00 87 1008.4
20260505101031 21 360 11.3 40.2 0.00 0.00 0.00 87 1008.4
20260505100931 21 360 11.3 40.2 0.00 0.00 0.00 87 1008.4
20260505100831 21 360 12.9 40.2 0.00 0.00 0.00 87 1008.4
20260505100732 21 360 11.3 40.2 0.00 0.00 0.00 87 1008.5
20260505100657 21 360 11.3 40.2 0.00 0.00 0.00 87 1008.5
20260505100537 21 360 8.0 25.7 0.00 0.00 0.00 87 1008.6
20260505100456 21 360 8.0 25.7 0.00 0.00 0.00 87 1008.6
20260505100316 21 360 9.7 24.1 0.00 0.00 0.00 86 1008.5
20260505100217 21 360 9.7 22.5 0.00 0.00 0.00 86 1008.5
20260505100118 21 360 9.7 22.5 0.00 0.00 0.00 86 1008.5
20260505100019 21 360 9.7 22.5 0.00 0.00 0.00 86 1008.5
20260505095924 21 360 9.7 22.5 0.00 0.00 0.00 86 1008.5
20260505095826 21 360 9.7 22.5 0.00 0.00 0.00 86 1008.5
20260505095746 21 360 9.7 22.5 0.00 0.00 0.00 86 1008.5
20260505095626 21 360 8.0 20.9 0.00 0.00 0.00 86 1008.5
20260505095526 21 360 6.4 20.9 0.00 0.00 0.00 86 1008.6
20260505095427 21 360 6.4 25.7 0.00 0.00 0.00 86 1008.5
20260505095326 21 360 6.4 25.7 0.00 0.00 0.00 86 1008.5
20260505095232 21 360 6.4 25.7 0.00 0.00 0.00 86 1008.5
20260505095132 21 360 6.4 25.7 0.00 0.00 0.00 86 1008.4
20260505095033 21 360 6.4 25.7 0.00 0.00 0.00 86 1008.5
20260505094934 21 360 6.4 25.7 0.00 0.00 0.00 86 1008.5
20260505094834 21 360 6.4 25.7 0.00 0.00 0.00 86 1008.5
20260505094735 21 360 6.4 25.7 0.00 0.00 0.00 86 1008.4
20260505094656 21 360 6.4 29.0 0.00 0.00 0.00 86 1008.4
20260505094519 21 360 8.0 29.0 0.00 0.00 0.00 86 1008.4
20260505094419 21 360 9.7 29.0 0.00 0.00 0.00 86 1008.4
20260505094320 21 360 9.7 29.0 0.00 0.00 0.00 86 1008.3
20260505094221 21 360 9.7 29.0 0.00 0.00 0.00 86 1008.4
20260505094142 21 360 9.7 29.0 0.00 0.00 0.00 86 1008.4
20260505094022 21 360 9.7 29.0 0.00 0.00 0.00 86 1008.5
20260505093922 21 360 11.3 29.0 0.00 0.00 0.00 86 1008.5
20260505093827 21 360 9.7 29.0 0.00 0.00 0.00 86 1008.5
20260505093727 21 360 9.7 22.5 0.00 0.00 0.00 86 1008.5
20260505093648 21 360 9.7 27.4 0.00 0.00 0.00 86 1008.5
20260505093528 21 360 8.0 27.4 0.00 0.00 0.00 86 1008.6
20260505093427 21 360 9.7 27.4 0.00 0.00 0.00 86 1008.6
20260505093328 21 360 9.7 27.4 0.00 0.00 0.00 86 1008.6
20260505093230 21 360 9.7 27.4 0.00 0.00 0.00 86 1008.5
20260505093134 21 360 9.7 27.4 0.00 0.00 0.00 86 1008.6
20260505093034 21 360 11.3 27.4 0.00 0.00 0.00 86 1008.6
20260505092916 21 360 11.3 27.4 0.00 0.00 0.00 86 1008.4
20260505092818 21 360 11.3 24.1 0.00 0.00 0.00 86 1008.4
20260505092717 21 360 11.3 24.1 0.00 0.00 0.00 86 1008.4
20260505092616 21 360 9.7 24.1 0.00 0.00 0.00 86 1008.5
20260505092521 21 360 9.7 27.4 0.00 0.00 0.00 86 1008.6
20260505092422 21 360 9.7 27.4 0.00 0.00 0.00 86 1008.6
20260505092322 21 360 8.0 27.4 0.00 0.00 0.00 86 1008.6
20260505092221 21 360 8.0 27.4 0.00 0.00 0.00 86 1008.6
20260505092122 21 360 8.0 27.4 0.00 0.00 0.00 86 1008.6
20260505092043 21 360 8.0 25.7 0.00 0.00 0.00 86 1008.6
20260505091942 21 360 8.0 25.7 0.00 0.00 0.00 86 1008.6
20260505091823 21 360 8.0 25.7 0.00 0.00 0.00 86 1008.4
20260505091726 21 360 8.0 25.7 0.00 0.00 0.00 86 1008.4
20260505091627 21 360 8.0 25.7 0.00 0.00 0.00 86 1008.4
20260505091528 21 360 9.7 25.7 0.00 0.00 0.00 86 1008.4
20260505091429 21 360 9.7 25.7 0.00 0.00 0.00 86 1008.4
20260505091329 21 360 9.7 25.7 0.00 0.00 0.00 86 1008.4
20260505091229 21 360 9.7 25.7 0.00 0.00 0.00 86 1008.5
20260505091130 21 360 12.9 25.7 0.00 0.00 0.00 86 1008.5
20260505091035 21 360 12.9 33.8 0.00 0.00 0.00 86 1008.5
20260505090935 21 360 12.9 33.8 0.00 0.00 0.00 86 1008.4
20260505090836 21 360 12.9 33.8 0.00 0.00 0.00 86 1008.3
20260505090716 21 360 11.3 33.8 0.00 0.00 0.00 85 1008.4
20260505090616 21 360 9.7 33.8 0.00 0.00 0.00 85 1008.4
20260505090517 21 360 8.0 33.8 0.00 0.00 0.00 85 1008.4
20260505090422 21 360 9.7 33.8 0.00 0.00 0.00 85 1008.6
20260505090322 21 360 9.7 33.8 0.00 0.00 0.00 86 1008.5
20260505090223 21 360 9.7 33.8 0.00 0.00 0.00 86 1008.5
20260505090123 21 360 9.7 33.8 0.00 0.00 0.00 86 1008.6
20260505090024 21 360 11.3 33.8 0.00 0.00 0.00 86 1008.7
20260505085924 21 360 11.3 32.2 0.00 0.00 0.00 86 1008.6
20260505085824 21 360 11.3 32.2 0.00 0.00 0.00 86 1008.7
20260505085729 21 360 9.7 22.5 0.00 0.00 0.00 86 1008.7
20260505085649 21 360 9.7 27.4 0.00 0.00 0.00 86 1008.7
20260505085528 21 360 11.3 27.4 0.00 0.00 0.00 86 1008.7
20260505085429 21 360 12.9 27.4 0.00 0.00 0.00 86 1008.6
20260505085330 21 360 12.9 27.4 0.00 0.00 0.00 86 1008.6
20260505085249 21 360 12.9 27.4 0.00 0.00 0.00 86 1008.6
20260505085128 21 360 12.9 27.4 0.00 0.00 0.00 86 1008.6
20260505085029 21 360 12.9 27.4 0.00 0.00 0.00 86 1008.7
20260505084934 21 360 12.9 27.4 0.00 0.00 0.00 85 1008.8
20260505084854 21 360 11.3 25.7 0.00 0.00 0.00 85 1008.7
20260505084755 21 360 9.7 33.8 0.00 0.00 0.00 85 1008.8
20260505084634 21 360 9.7 33.8 0.00 0.00 0.00 85 1008.8
20260505084516 21 360 9.7 33.8 0.00 0.00 0.00 85 1008.8
20260505084417 21 360 11.3 33.8 0.00 0.00 0.00 85 1008.7
20260505084317 21 360 11.3 33.8 0.00 0.00 0.00 85 1008.7
20260505084222 21 360 12.9 33.8 0.00 0.00 0.00 85 1008.6
20260505084142 21 360 12.9 33.8 0.00 0.00 0.00 85 1008.6
20260505084022 21 360 12.9 33.8 0.00 0.00 0.00 85 1008.6
20260505083939 21 360 12.9 32.2 0.00 0.00 0.00 85 1008.7
20260505083839 21 360 12.9 32.2 0.00 0.00 0.00 85 1008.6
20260505083720 21 360 11.3 29.0 0.00 0.00 0.00 85 1008.6
20260505083619 21 360 11.3 38.6 0.00 0.00 0.00 85 1008.7
20260505083540 21 360 9.7 38.6 0.00 0.00 0.00 85 1008.5
20260505083424 21 360 9.7 38.6 0.00 0.00 0.00 85 1008.6
20260505083324 21 360 9.7 38.6 0.00 0.00 0.00 85 1008.6
20260505083225 21 360 9.7 38.6 0.00 0.00 0.00 85 1008.6
20260505083125 21 360 11.3 38.6 0.00 0.00 0.00 85 1008.7
20260505083025 21 360 12.9 38.6 0.00 0.00 0.00 85 1008.7
20260505082926 21 360 12.9 38.6 0.00 0.00 0.00 85 1008.8
20260505082826 21 360 12.9 38.6 0.00 0.00 0.00 86 1008.8
20260505082752 21 360 14.5 38.6 0.00 0.00 0.00 86 1008.9
20260505082631 21 360 14.5 38.6 0.00 0.00 0.00 86 1008.9
20260505082551 21 360 14.5 38.6 0.00 0.00 0.00 86 1008.9
20260505082430 21 360 12.9 37.0 0.00 0.00 0.00 86 1008.9
20260505082330 21 360 12.9 37.0 0.00 0.00 0.00 86 1008.9
20260505082251 21 360 12.9 37.0 0.00 0.00 0.00 86 1009.0
20260505082130 21 360 12.9 37.0 0.00 0.00 0.00 86 1009.0
20260505082031 21 360 12.9 35.4 0.00 0.00 0.00 86 1009.0
20260505081916 21 360 9.7 35.4 0.00 0.00 0.00 86 1009.1
20260505081835 21 360 11.3 35.4 0.00 0.00 0.00 86 1009.1
20260505081716 21 360 11.3 35.4 0.00 0.00 0.00 86 1009.1
20260505081617 21 360 9.7 35.4 0.00 0.00 0.00 86 1009.1
20260505081517 21 360 8.0 35.4 0.00 0.00 0.00 86 1009.1
20260505081418 21 360 8.0 35.4 0.00 0.00 0.00 86 1009.2
20260505081322 21 360 9.7 35.4 0.00 0.00 0.00 86 1009.2
20260505081222 21 360 9.7 35.4 0.00 0.00 0.00 86 1009.1